Capt. Harry — WDC3690 — position and weather

sailwx.info

Track history (hours):
 
Tides and Currents Weather Stations Pressure Air Temp Water Temp Dewpoint Dewpoint Depression Visibility Wind Speed Wind Dir Waves Ship Positions

Capt. Harry

Owner: Wilmington Tug, Inc., New Castle, DE. More information available from US FCC via Universal Licensing System and Coast Guard Vessel Documentation Center.

Last reported at 2014-Oct-24 17:06 UTC. Time now 2014-Oct-26 05:14 UTC.
Position N 39°47' W 075°28'.

Type: Tug. MMSI: 367012530.

Date/timePositionNaut miles runAvg speedWind from/ knotsBaromVisibWave heightAir tempDewpointWater temp
2014-Oct-24 17:06N 39°47' W 075°28'4 0.3
2014-Oct-24 04:24N 39°49' W 075°24'8 9.2
2014-Oct-24 03:33N 39°43' W 075°31'0 0.0
2014-Oct-24 02:33N 39°43' W 075°31'0 0.0
2014-Oct-24 01:31N 39°43' W 075°31'0 0.0
2014-Oct-24 00:18N 39°43' W 075°31'1 0.5
2014-Oct-23 23:13N 39°43' W 075°31'0 0.3
2014-Oct-23 22:28N 39°42' W 075°31'1 0.6
2014-Oct-23 21:33N 39°43' W 075°31'0 0.0
2014-Oct-23 20:33N 39°43' W 075°31'0 0.0
2014-Oct-23 19:33N 39°43' W 075°31'0 0.0
2014-Oct-23 18:33N 39°43' W 075°31'0 0.0
2014-Oct-23 17:33N 39°43' W 075°31'0 0.0
2014-Oct-23 16:33N 39°43' W 075°31'0 0.0
2014-Oct-23 15:33N 39°43' W 075°31'0 0.0
2014-Oct-23 14:33N 39°43' W 075°31'0 0.0
2014-Oct-23 13:33N 39°43' W 075°31'0 0.1
2014-Oct-23 12:32N 39°43' W 075°31'0 0.0
2014-Oct-23 11:33N 39°43' W 075°31'0 0.0
2014-Oct-23 10:33N 39°43' W 075°31'0 0.1
2014-Oct-23 09:26N 39°43' W 075°31'0 0.1
2014-Oct-23 08:32N 39°43' W 075°31'0 0.0
2014-Oct-23 07:33N 39°43' W 075°31'9 7.0
2014-Oct-23 06:19N 39°49' W 075°23'0 0.0
2014-Oct-21 22:33N 39°49' W 075°23'10 0.3
2014-Oct-20 11:31N 39°53' W 075°11'0 0.0
2014-Oct-20 10:31N 39°53' W 075°11'20 0.5
2014-Oct-18 15:33N 39°41' W 075°31'7 6.8
2014-Oct-18 14:33N 39°35' W 075°35'0 0.4
2014-Oct-18 13:33N 39°35' W 075°35'2 1.8
2014-Oct-18 12:33N 39°34' W 075°33'6 5.6
2014-Oct-18 11:33N 39°39' W 075°33'4 4.0
2014-Oct-18 10:33N 39°43' W 075°31'0 0.0
2014-Oct-18 09:33N 39°43' W 075°31'0 0.0
2014-Oct-18 08:33N 39°43' W 075°31'0 0.0
2014-Oct-18 07:33N 39°43' W 075°31'0 0.0
2014-Oct-18 06:33N 39°43' W 075°31'0 0.2
2014-Oct-18 05:32N 39°43' W 075°31'0 0.2
2014-Oct-18 04:33N 39°43' W 075°31'0 0.0
2014-Oct-18 03:31N 39°43' W 075°31'0 0.0
2014-Oct-18 02:33N 39°43' W 075°31'0 0.0
2014-Oct-18 01:33N 39°43' W 075°31'0 0.0
2014-Oct-18 00:33N 39°43' W 075°31'0 0.0
2014-Oct-17 23:33N 39°43' W 075°31'0 0.0
2014-Oct-17 22:33N 39°43' W 075°31'0 0.0
2014-Oct-17 21:33N 39°43' W 075°31'1 1.2
2014-Oct-17 20:33N 39°44' W 075°30'42 0.9
2014-Oct-15 21:11N 40°08' W 074°46'7 8.6
2014-Oct-15 20:23N 40°05' W 074°53'7 8.9
2014-Oct-15 19:33N 40°01' W 075°02'12 2.2
2014-Oct-15 14:05N 39°52' W 075°13'3 1.9
2014-Oct-15 12:24N 39°51' W 075°17'8 1.6
2014-Oct-15 07:32N 39°48' W 075°26'6 5.5
2014-Oct-15 06:26N 39°43' W 075°31'  
Track history (hours):
 
Tides and Currents Weather Stations Pressure Air Temp Water Temp Dewpoint Dewpoint Depression Visibility Wind Speed Wind Dir Waves Ship Positions

Capt. Harry

Owner: Wilmington Tug, Inc., New Castle, DE. More information available from US FCC via Universal Licensing System and Coast Guard Vessel Documentation Center.

Last reported at 2014-Oct-24 17:06 UTC. Time now 2014-Oct-26 05:14 UTC.
Position N 39°47' W 075°28'.

Type: Tug. MMSI: 367012530.

Date/timePositionNaut miles runAvg speedWind from/ knotsBaromVisibWave heightAir tempDewpointWater temp
2014-Oct-24 17:06N 39°47' W 075°28'4 0.3
2014-Oct-24 04:24N 39°49' W 075°24'8 9.2
2014-Oct-24 03:33N 39°43' W 075°31'0 0.0
2014-Oct-24 02:33N 39°43' W 075°31'0 0.0
2014-Oct-24 01:31N 39°43' W 075°31'0 0.0
2014-Oct-24 00:18N 39°43' W 075°31'1 0.5
2014-Oct-23 23:13N 39°43' W 075°31'0 0.3
2014-Oct-23 22:28N 39°42' W 075°31'1 0.6
2014-Oct-23 21:33N 39°43' W 075°31'0 0.0
2014-Oct-23 20:33N 39°43' W 075°31'0 0.0
2014-Oct-23 19:33N 39°43' W 075°31'0 0.0
2014-Oct-23 18:33N 39°43' W 075°31'0 0.0
2014-Oct-23 17:33N 39°43' W 075°31'0 0.0
2014-Oct-23 16:33N 39°43' W 075°31'0 0.0
2014-Oct-23 15:33N 39°43' W 075°31'0 0.0
2014-Oct-23 14:33N 39°43' W 075°31'0 0.0
2014-Oct-23 13:33N 39°43' W 075°31'0 0.1
2014-Oct-23 12:32N 39°43' W 075°31'0 0.0
2014-Oct-23 11:33N 39°43' W 075°31'0 0.0
2014-Oct-23 10:33N 39°43' W 075°31'0 0.1
2014-Oct-23 09:26N 39°43' W 075°31'0 0.1
2014-Oct-23 08:32N 39°43' W 075°31'0 0.0
2014-Oct-23 07:33N 39°43' W 075°31'9 7.0
2014-Oct-23 06:19N 39°49' W 075°23'0 0.0
2014-Oct-21 22:33N 39°49' W 075°23'10 0.3
2014-Oct-20 11:31N 39°53' W 075°11'0 0.0
2014-Oct-20 10:31N 39°53' W 075°11'20 0.5
2014-Oct-18 15:33N 39°41' W 075°31'7 6.8
2014-Oct-18 14:33N 39°35' W 075°35'0 0.4
2014-Oct-18 13:33N 39°35' W 075°35'2 1.8
2014-Oct-18 12:33N 39°34' W 075°33'6 5.6
2014-Oct-18 11:33N 39°39' W 075°33'4 4.0
2014-Oct-18 10:33N 39°43' W 075°31'0 0.0
2014-Oct-18 09:33N 39°43' W 075°31'0 0.0
2014-Oct-18 08:33N 39°43' W 075°31'0 0.0
2014-Oct-18 07:33N 39°43' W 075°31'0 0.0
2014-Oct-18 06:33N 39°43' W 075°31'0 0.2
2014-Oct-18 05:32N 39°43' W 075°31'0 0.2
2014-Oct-18 04:33N 39°43' W 075°31'0 0.0
2014-Oct-18 03:31N 39°43' W 075°31'0 0.0
2014-Oct-18 02:33N 39°43' W 075°31'0 0.0
2014-Oct-18 01:33N 39°43' W 075°31'0 0.0
2014-Oct-18 00:33N 39°43' W 075°31'0 0.0
2014-Oct-17 23:33N 39°43' W 075°31'0 0.0
2014-Oct-17 22:33N 39°43' W 075°31'0 0.0
2014-Oct-17 21:33N 39°43' W 075°31'1 1.2
2014-Oct-17 20:33N 39°44' W 075°30'42 0.9
2014-Oct-15 21:11N 40°08' W 074°46'7 8.6
2014-Oct-15 20:23N 40°05' W 074°53'7 8.9
2014-Oct-15 19:33N 40°01' W 075°02'12 2.2
2014-Oct-15 14:05N 39°52' W 075°13'3 1.9
2014-Oct-15 12:24N 39°51' W 075°17'8 1.6
2014-Oct-15 07:32N 39°48' W 075°26'6 5.5
2014-Oct-15 06:26N 39°43' W 075°31'  

Dump ship's entire track history